sat.trackr.live / text

‹ back to catalog

ONEWEB-0376

NORAD 49302 · 2021-090Z

PAYLOAD ACTIVE UNKNOWN

§ Identity

Operator
Country
UK
Launch date
2021-10-14
Launch site
VOSTO
Launch vehicle
Mass (kg)
RCS (m²)

Purposes: comms

External: N2YO · Heavens-Above · Gunter

§ Orbital elements

Epoch: 2026-09-20T00:50:30.734880Z

Period
109.11 min
Inclination
87.9107°
Eccentricity
0.0001912
Mean motion
13.19727211 rev/d
Perigee alt
1,184.3 km
Apogee alt
1,187.2 km
Semi-major
7,563.9 km
B*
1.0841e-4
RAAN
286.0711°
Arg perigee
86.7375°
Mean anomaly
273.3977°
Rev number
23,896

§ Raw data

ONEWEB-03761 49302U 21090Z   26263.03507795  .00000056  00000+0  10841-3 0  99922 49302  87.9107 286.0711 0001912  86.7375 273.3977 13.19727211238966

JSON: /api/v1/satellites/49302 · /tle

For live sub-satellite position, see the globe view (requires WebGL).

§ Visibility from observer

Set your observer location to see the next 7 days of passes ≥ 10°. The values pass through the URL so the page stays shareable.

No JS? Fill the form by hand. The geolocation button needs JavaScript.